Location: Hilton Head Island
(32.2163°N, 80.7526°W)
Time: 12:08:37
(UTC-04:00)

S-56A Canister/Altair - Pass Details

Date: 21 February 2026
Orbit: 633 x 2484 km, 38.9° (Epoch: 10 March)

Event Time Altitude Azimuth Distance (km) Brightness Sun altitude
Exits shadow 02:08:42 14° 90° (E) 3,598 11.1 -59.7°
Drops below altitude 10° 02:10:09 10° 92° (E) 4,063 11.4 -59.4°
Sets 02:14:13 0° 96° (E) 5,346 12.1 -58.7°
